Location: Unspecified
(40.9447°N, 78.9903°W)
Time: 21:19:37
(UTC-04:00)

Cosmos 1674 - Visible Passes

Search period start: 26 July 2021 00:00
Search period end: 05 August 2021 00:00
Orbit: 494 x 515 km, 82.5° (Epoch: 26 July)

Date Brightness Start Highest point End Pass type
(mag) Time Alt. Az. Time Alt. Az. Time Alt. Az.
26 Jul 2.7 04:28:18 10° N 04:32:08 79° E 04:35:55 10° S visible
27 Jul 3.3 04:09:48 10° N 04:13:35 56° E 04:16:39 15° SSE visible
28 Jul 3.9 03:51:21 10° N 03:55:00 41° ENE 03:57:27 18° SE visible
28 Jul 4.7 05:28:27 10° WNW 05:30:03 12° W 05:31:37 10° WSW visible
29 Jul 4.4 03:32:58 10° NNE 03:36:23 30° ENE 03:38:20 19° SE visible
29 Jul 4.4 05:09:09 10° NW 05:11:35 16° W 05:13:04 14° WSW visible
30 Jul 4.8 03:14:40 10° NNE 03:17:46 23° ENE 03:19:16 18° ESE visible
30 Jul 4.0 04:50:09 10° NW 04:53:08 22° W 04:54:00 20° WSW visible
31 Jul 5.1 02:56:30 10° NNE 02:59:08 17° ENE 03:00:16 16° E visible
31 Jul 3.6 04:31:18 10° NNW 04:34:38 29° W 04:35:01 28° WSW visible
01 Aug 5.4 02:38:33 10° NE 02:40:27 13° ENE 02:41:19 13° E visible
01 Aug 3.2 04:12:32 10° NNW 04:16:03 39° W 04:16:03 39° W visible
02 Aug 3.0 03:53:51 10° NNW 03:57:08 50° WNW 03:57:08 50° WNW visible
03 Aug 3.2 03:35:14 10° N 03:38:15 52° NNW 03:38:15 52° NNW visible
04 Aug 3.7 03:16:40 10° N 03:19:24 44° N 03:19:24 44° N visible
